[[{"header":{"parameterUnit":"m.s-1","parameterCategory":1,"la1":30.2992,"la2":30.254,"lo1":-89.0895,"lo2":-89.0443,"dy":0.0025,"dx":0.0025,"nx":19,"ny":19,"refTime":"2026-04-04T21:00:00:Z","depth":0,"parameterNumber":2,"parameterNumberName":"U-component_of_WINDS"},"data":[0,0,0,-2.7582,-2.7583,-2.7604,-2.7604,-2.7663,-2.7664,0,0,0,0,0,0,0,0,0,0,0,-2.7595,-2.7596,-2.7582,-2.7583,-2.7604,-2.7604,-2.7663,-2.7664,0,0,0,0,0,0,0,0,0,0,0,-2.7594,-2.7596,-2.7597,-2.7583,-2.7604,-2.7604,-2.7663,-2.7636,0,0,0,0,0,0,0,0,0,0,-2.761,-2.764,-2.7595,-2.7597,-2.7584,-2.7604,-2.7604,-2.7634,-2.7637,-2.7667,0,-2.7698,0,-2.7682,-2.767,-2.767,0,0,0,-2.757,-2.7637,-2.7625,-2.7597,-2.7584,-2.7604,-2.7591,-2.7635,-2.7639,-2.7672,-2.7698,-2.7699,-2.7683,-2.767,-2.7671,-2.7885,-2.7886,0,0,-2.7569,-2.7609,-2.7623,-2.7629,-2.7626,-2.759,-2.7592,-2.7637,-2.7669,-2.7698,-2.77,-2.7684,-2.7671,-2.7672,-2.7883,-2.7885,0,0,0,-2.7574,-2.7609,-2.7595,-2.7627,-2.7629,-2.7591,-2.7593,-2.7667,-2.7659,-2.7701,-2.7684,-2.7671,-2.7672,-2.7881,-2.7884,-2.8005,0,0,0,-2.7573,-2.7612,-2.7596,-2.7621,-2.7628,-2.7648,-2.7622,-2.7656,-2.766,-2.7684,-2.7671,-2.7673,-2.788,-2.7883,-2.7998,-2.8056,0,0,0,-2.7587,-2.7614,-2.7623,-2.7623,-2.7633,-2.7646,-2.764,-2.7656,-2.7651,-2.767,-2.7674,-2.7878,-2.7882,-2.7991,-2.8045,-2.8125,0,0,0,-2.7614,-2.7731,-2.7625,-2.7749,-2.7633,-2.772,-2.764,-2.7702,-2.7733,-2.7672,-2.788,-2.7884,-2.7989,-2.8039,-2.8119,-2.8201,-2.8239,0,0,-2.7784,-2.7753,-2.7822,-2.7728,-2.7844,-2.7713,-2.7847,-2.7837,-2.7803,-2.786,-2.7864,-2.8,-2.8045,-2.8124,-2.8432,-2.8462,0,0,0,-2.7889,-2.794,-2.7961,-2.7992,-2.7986,-2.7987,-2.7952,-2.7948,-2.7994,-2.784,-2.8048,-2.8073,-2.8118,-2.8156,-2.8182,-2.8218,-2.7902,-2.7902,-2.7901,-2.819,-2.8137,-2.8248,-2.8199,-2.8229,-2.8191,-2.8211,-2.82,-2.8139,-2.8189,-2.8207,-2.84,-2.8446,-2.8465,-2.8503,-2.8244,-2.8245,-2.8245,-2.8245,-2.8435,-2.8499,-2.8413,-2.849,-2.8434,-2.8499,-2.8466,-2.8421,-2.8474,-2.8383,-2.8419,-2.8327,-2.8499,-2.853,-2.8254,-2.8252,-2.8251,-2.8251,-2.825,-2.8628,-2.865,-2.8641,-2.8679,-2.8714,-2.8659,-2.8713,-2.866,-2.861,-2.8647,-2.866,-2.8658,-2.8651,-2.8656,-2.8657,-2.8657,-2.8658,-2.8659,-2.8659,-2.8833,-2.8819,-2.8871,-2.8873,-2.8885,-2.8894,-2.8856,-2.8866,-2.8865,-2.8822,-2.8822,-2.8758,-2.8525,-2.8469,-2.8669,-2.8667,-2.8666,-2.8665,-2.8664,-2.9106,-2.9034,-2.9115,-2.9127,-2.9124,-2.9163,-2.9092,-2.9119,-2.912,-2.9149,-2.9075,-2.8911,-2.8876,-2.8855,-2.8808,-2.9084,-2.9084,-2.9085,-2.9085,-2.927,-2.9246,-2.9315,-2.9337,-2.9353,-2.9297,-2.939,-2.9361,-2.932,-2.9318,-2.9269,-2.9202,-2.9183,-2.9159,-2.9132,-2.9088,-2.9429,-2.9429,-2.9429,-2.9436,-2.941,-2.9499,-2.9456,-2.9449,-2.9446,-2.9532,-2.9562,-2.9501,-2.9442,-2.9315,-2.9301,-2.9191,-2.9158,-2.91,-2.9059,-2.8976,0,0]},{"header":{"parameterUnit":"m.s-1","parameterCategory":1,"la1":30.2992,"la2":30.254,"lo1":-89.0895,"lo2":-89.0443,"dy":0.0025,"dx":0.0025,"nx":19,"ny":19,"refTime":"2026-04-04T21:00:00:Z","depth":0,"parameterNumber":3,"parameterNumberName":"V-component_of_WINDS"},"data":[0,0,0,-7.0723,-7.0727,-7.0887,-7.0887,-7.1105,-7.1107,0,0,0,0,0,0,0,0,0,0,0,-7.0687,-7.0689,-7.0723,-7.0727,-7.0887,-7.0887,-7.1105,-7.1107,0,0,0,0,0,0,0,0,0,0,0,-7.0686,-7.0689,-7.0691,-7.0728,-7.0887,-7.0887,-7.1104,-7.0978,0,0,0,0,0,0,0,0,0,0,-7.082,-7.08,-7.0688,-7.0691,-7.0729,-7.0886,-7.0887,-7.0971,-7.0986,-7.1039,0,-7.1094,0,-7.1104,-7.1123,-7.1124,0,0,0,-7.0717,-7.0788,-7.0821,-7.0692,-7.073,-7.0886,-7.0812,-7.0979,-7.0995,-7.1058,-7.1097,-7.1104,-7.1108,-7.1124,-7.1126,-7.1478,-7.148,0,0,-7.0708,-7.0722,-7.081,-7.0832,-7.0812,-7.0807,-7.0817,-7.0989,-7.103,-7.1098,-7.1109,-7.1112,-7.1126,-7.1128,-7.1476,-7.1479,0,0,0,-7.0689,-7.0716,-7.0744,-7.0823,-7.0851,-7.0812,-7.0823,-7.1022,-7.103,-7.1111,-7.1114,-7.1127,-7.113,-7.1474,-7.1477,-7.1597,0,0,0,-7.0684,-7.0705,-7.0741,-7.0751,-7.0849,-7.094,-7.0853,-7.1019,-7.1038,-7.1113,-7.1127,-7.1132,-7.1472,-7.1476,-7.1589,-7.1651,0,0,0,-7.0673,-7.0703,-7.0731,-7.0751,-7.0821,-7.0937,-7.0954,-7.1022,-7.104,-7.1124,-7.1133,-7.147,-7.1475,-7.1581,-7.1639,-7.1748,0,0,0,-7.0664,-7.0834,-7.0733,-7.0923,-7.082,-7.1011,-7.0953,-7.1094,-7.118,-7.1129,-7.1472,-7.1477,-7.1579,-7.1631,-7.1741,-7.1844,-7.1888,0,0,-7.0885,-7.0861,-7.0971,-7.0886,-7.11,-7.0985,-7.1214,-7.1278,-7.1271,-7.1409,-7.1417,-7.1591,-7.1638,-7.1747,-7.2132,-7.2167,0,0,0,-7.1046,-7.1126,-7.1179,-7.1264,-7.1319,-7.1371,-7.1399,-7.1423,-7.1539,-7.1346,-7.166,-7.1687,-7.175,-7.1799,-7.1829,-7.1882,-7.15,-7.1499,-7.1499,-7.1378,-7.1363,-7.1545,-7.155,-7.1632,-7.1661,-7.1725,-7.1761,-7.1719,-7.1794,-7.1835,-7.207,-7.2128,-7.215,-7.2206,-7.1887,-7.1888,-7.1888,-7.1889,-7.1701,-7.1811,-7.1755,-7.1911,-7.1893,-7.2022,-7.2055,-7.2021,-7.2137,-7.2038,-7.2093,-7.1986,-7.219,-7.2238,-7.1897,-7.1896,-7.1895,-7.1894,-7.1893,-7.1917,-7.1967,-7.1995,-7.2117,-7.2211,-7.2208,-7.2323,-7.2302,-7.2281,-7.2336,-7.2376,-7.2374,-7.2369,-7.2357,-7.2358,-7.2358,-7.2359,-7.236,-7.236,-7.213,-7.2158,-7.226,-7.2334,-7.2385,-7.245,-7.248,-7.2529,-7.2577,-7.2551,-7.2552,-7.2503,-7.2213,-7.2141,-7.2373,-7.2371,-7.2369,-7.2368,-7.2367,-7.2464,-7.2385,-7.2543,-7.2595,-7.2679,-7.2774,-7.2745,-7.2847,-7.2883,-7.2941,-7.288,-7.267,-7.2641,-7.2617,-7.2557,-7.2883,-7.2883,-7.2883,-7.2883,-7.2647,-7.2631,-7.2787,-7.2872,-7.2952,-7.2943,-7.3118,-7.3141,-7.3153,-7.3174,-7.3123,-7.3042,-7.3018,-7.3004,-7.2972,-7.2915,-7.3325,-7.3325,-7.3326,-7.2851,-7.2842,-7.2998,-7.3011,-7.3075,-7.313,-7.3294,-7.339,-7.3386,-7.3343,-7.319,-7.3171,-7.3039,-7.2998,-7.2952,-7.2902,-7.2798,0,0]}]]